Showing default

FOSSASAT2E18 (TAT-A), 62686

Orbit data source: Space-Track

FOSSASAT2E18 (TAT-A), 62686 is a payload satellite owned by Fossa Systems (ES) in SSO that was launched on Tue, 14 Jan 2025 UTC via an FALCON 9 launch vehicle from the Air Force Western Test Range (AFWTR). Payload-class satellites include a variety of spacecraft equipped with specific instruments for various scientific and technological missions. These include communications satellites like Starlink; space stations such as the ISS; scientific satellites like the Hubble; Earth observation satellites from companies like Planet Labs, Umbra, and HawkEye 360; GPS; miniature CubeSats for education and research; and military/defense satellites.

Loading next visibility...
Identifier
62686, 2025-009CF
Orbit
SSO
Country
Flag of ESES / SPN
Related business
Manufacturer
Fossa Systems
Mission
Operational Commercial Communications
Bus & Motor
CUBESAT 3U, Unknown motor
Mass
4 kg wet, 4 kg dry
Launch date (UTC)
2025-01-14 (1 year ago)
Launch vehicle
FALCON 9
Launch site
Air Force Western Test Range (AFWTR)
Object type
Payload
Rocket body
Debris
Shape & HBR
Box + 2 Pan, 0.4 m
Radar Cross Section
0.035 m², Medium (>0.1 m² and < 1m²)

Expand to show TLE details & history
Last TLE update: 14 hours ago

TLE from 14 hours ago
0 FOSSASAT2E18 (TAT-A)
1 62686U 25009CF  26121.94496337  .00003119  00000-0  14456-3 0  9998
2 62686  97.3976 201.1155 0007382 130.1208 230.0676 15.20793513 71661
Epoch: 2026-05-01T22:40Z
TLE epoch observation values (Epoch: 2026-05-01T22:40:44.835Z)
Latitude
0.00005°
Longitude
1.05874°
Altitude
509.801 km
Speed
7.607 km/s
True Right ascension
13h 24m 27s
True Declination
0° 00' 00"
Sunlit
Object was in full shadow at epoch
Visualization orbit readout
Latitude
Unknown
Longitude
Unknown
Altitude
Unknown
Speed
Unknown
Apparent Right ascension
Unknown
Apparent Declination
Unknown
Sunlit
N/A
Visualization observer readout
Local Sidereal Time
19:53:23
Azimuth
Unknown
Elevation
Unknown
Doppler factor
Unknown
Orbital elements
Apogee altitude
505.488 km
Perigee altitude
495.332 km
Semi-major axis
6,878.547 km
Eccentricity
0.00074
Inclination
97.3976°
RAAN
201.1155°
Arg. of periapsis
130.1208°
True anomaly
230.00277°
Mean anomaly
230.0676°
Eccentric anomaly
230.03518°
Mean motion
3.8045 °/min
Orbital period
94.62 mins
BSTAR
0.00014456
Loading maneuver chart data...
Computing Atmospheric mass density...
Loading historical data...
Loading historical data...
Loading historical data...
Loading historical data...
Loading historical data...
Loading historical data...
Loading historical data...

Documentation

Showing up to 5 results
|